Regional Weather Roundup
Issued by NWS Charleston, SC

Current Version | Previous Version | Graphics & Text | Print | Product List | Glossary On
Versions: 1 2 3 4 5 6 7 8 9 10 11 12 13 14 15 16 17 18 19 20 21 22 23 24 25 26 27 28 29 30 31 32 33 34 35 36 37 38 39 40 41 42 43 44 45 46 47 48 49 50
000 ASUS42 KCHS 270827 RWRCHS REGIONAL WEATHER ROUNDUP NATIONAL WEATHER SERVICE CHARLESTON SC 400 AM EDT THU APR 27 2017 NOTE: "FAIR" INDICATES FEW OR NO CLOUDS BELOW 12,000 FEET WITH NO SIGNIFICANT WEATHER AND/OR OBSTRUCTIONS TO VISIBILITY. NOT ALL STATIONS ARE QUALITY CONTROLLED. USE DATA WITH CAUTION... ESPECIALLY DEWPOINT OBSERVATIONS. SCZ027-030-031-034>040-042>050-270900- ...SOUTHEAST SOUTH CAROLINA... CITY SKY/WX TMP DP RH WIND PRES REMARKS N CHARLESTON CLEAR 64 61 90 S7 29.87R WATERFRONT PRK N/A 71 67 87 S7 29.87S JOHNS ISLAND FAIR 70 66 88 SW8 29.88S PINOPOLIS N/A 64 63 94 VRB2 29.78S MONCKS CORNER FAIR 57 57 100 CALM 29.87S SUMMERVILLE FAIR 61 61 100 CALM 29.88S BEAUFORT MCAS PTCLDY 69 67 93 SW6 29.88R BEAUFORT ARPT FAIR 70 64 83 SW6 29.88R HILTON HEAD IS PTCLDY 72 68 88 S9G16 29.88S WALTERBORO SUNNY 57 55 94 CALM 29.89R ALLENDALE FAIR 63 63 100 CALM 29.86S ...SOUTHERN MIDLANDS AND PEE DEE... CITY SKY/WX TMP DP RH WIND PRES REMARKS GEORGETOWN FAIR 61 61 100 S3 29.89R KINGSTREE FAIR 59 57 94 CALM 29.87S ORANGEBURG CLEAR 61 60 97 SW3 29.87R BARNWELL FAIR 64 63 94 CALM 29.87R AIKEN FAIR 59 57 94 S5 29.89S MANNING FAIR 63 61 94 S9G21 29.87S COLUMBIA CLEAR 65 60 84 SW5 29.85R SUMTER PTCLDY 62 60 91 CALM 29.84S FLORENCE CLEAR 60 59 96 S3 29.87S MYRTLE BEACH NOT AVBL N MYRTLE BEACH CLEAR 69 66 90 S8 29.87F $$ GAZ063-065-086>088-099>101-113>116-118-119-134>141-150-270900- ...SOUTHEAST GEORGIA... CITY SKY/WX TMP DP RH WIND PRES REMARKS SAVANNAH ARPT CLEAR 67 62 84 SW6 29.87F HUNTER AAF CLEAR 68 68 99 CALM 29.85F FORT STEWART CLEAR 62 59 90 CALM 29.85S STATESBORO CLEAR 62 62 100 CALM 29.88R SYLVANIA SUNNY N/A N/A N/A CALM 29.88R CLAXTON FAIR N/A N/A N/A CALM 29.88R ...CSRA...CENTRAL AND FAR SOUTHEAST GEORGIA... CITY SKY/WX TMP DP RH WIND PRES REMARKS THOMSON CLEAR 63 58 83 SW5 29.88F AUGUSTA-BUSH CLEAR 63 60 90 CALM 29.85R AUGUSTA-DANIEL PTCLDY 66 57 72 CALM 29.86R SWAINSBORO FAIR 61 57 88 SE3 29.87S VIDALIA CLEAR 61 55 82 CALM 29.86F EASTMAN FAIR 63 52 67 CALM 29.86F HAZLEHURST PTSUNNY 63 60 87 S3 29.85S ALMA CLEAR 57 56 96 CALM 29.86S WAYCROSS PTCLDY 64 61 91 CALM 29.86S JESUP FAIR 59 55 88 CALM 29.88R BAXLEY FAIR 59 59 100 CALM 29.86S BRUNSWICK PTCLDY 64 63 94 S6 29.88S SAINT SIMONS CLEAR 69 61 75 SW5 29.87F $$ SCZ027-028-034-036>038-045-046-048>050-GAZ119-141-270900- ...LAKE AND SUPPLEMENTAL COASTAL OBSERVATIONS... STATION/POSITION TIME TEMP WIND PRES WAVE SWELL AIR SEA DIR/SP/G HT/PER HT/PER/DIR (UTC) (F) (DEG/KT/KT) (MB) (FT/S) (FT/S/D) WINYAH BAY 0730 69 200/ 6 1011.0F LAKE MURRAY 0820 66 220/ 8/ 11 1010.2 ACE BASIN NERRS 0745 69 CALM 1011.0S FORT PULASKI 0800 71 74 220/ 6/ 9 1011.7 SAPELO ISLAND 0730 69 210/ 7 1012.0S $$ ANZ835-935-AMZ111-154-330-350-352-354-370-450-454-472-270900- ...C-MAN AND BUOY OBSERVATIONS... STATION/POSITION TIME TEMP WIND PRES WAVE SWELL AIR SEA DIR/SP/G HT/PER HT/PER/DIR (UTC) (F) (DEG/KT/KT) (MB) (FT/S) (FT/S/D) BUOY 41004 0810 73 73 210/ 10/ 12 1011.8 BUOY 41008 0750 73 72 190/ 14/ 16 1011.3F 4/ 5 2/ 80/ 9 FOLLY BEACH CMAN 0800 72 220/ 13/ 15 1012.3R CAPERS NEARSHORE 0808 74 72 220/ 12/ 16 1011.7S FRIPP NEARSHORE 0808 72 72 210/ 14/ 19 1011.3F STATION/POSITION TIME TEMP WIND PRES WAVE SWELL AIR SEA DIR/SP/G HT/PER HT/PER/DIR (UTC) (F) (DEG/KT/KT) (MB) (FT/S) (FT/S/D) 5E ST. MARYS GA 0800 73 N/A 4/ 5 FRYING PAN BUOY 0810 73 73 220/ 6/ 8 1012.0 BUOY 41025 0750 76 77 230/ 19/ 23 1011.9R 6/10 3/100/10 CAPE LOOKOUT NC 0800 70 220/ 6/ 8 1012.1R BUOY 41002 0750 74 75 190/ 14/ 17 1014.6R 6/ 9 3/110/ 9 BUOY 41010 0810 76 78 160/ 16/ 17 1013.4 ST AUGUSTINE FL 0800 69 74 200/ 4/ 5 1013.0F $$

USA.gov is the U.S. government's official web portal to all federal, state and local government web resources and services.